This demonstration page uses our WeatherBlox Daily Observations layout. Learn more.

Left ArrowRight Arrow

47.50024, -111.30081

Hourly Observations for January 8, 2020

Temp ( °F °C ) Dew Point ( °F °C ) Humidity (%) Winds ( mph kmh ) Pressure ( in mb ) Visibility ( mi km ) Precip ( " mm )
12:53 am 00:53 Clear 40 4.4 25 -3.9 55 55 SSW 17 28 29.62 1003 10 16 0.00 0.00
1:53 am 01:53 Clear 41 5 24 -4.4 51 51 SSW 16 26 29.60 1002 10 16 0.00 0.00
2:53 am 02:53 Clear 36 2.2 22 -5.6 57 57 WSW 10 17 29.60 1002 10 16 0.00 0.00
3:53 am 03:53 Clear 36 2.2 22 -5.6 57 57 SSW 12 19 29.57 1002 10 16 0.00 0.00
4:53 am 04:53 Clear 40 4.4 22 -5.6 49 49 S 14 22 29.53 1000 10 16 0.00 0.00
5:53 am 05:53 Clear 36 2.2 24 -4.4 62 62 SSW 12 19 29.53 1000 10 16 0.00 0.00
6:53 am 06:53 Clear 38 3.3 26 -3.3 62 62 SSW 26 43 29.51 999 10 16 0.00 0.00
7:53 am 07:53 Clear 37 2.8 23 -5 57 57 S 20 31 29.49 999 10 16 0.00 0.00
8:53 am 08:53 Sunny 38 3.3 22 -5.6 52 52 SW 17 28 29.50 999 10 16 0.00 0.00
9:53 am 09:53 Sunny 41 5 21 -6.1 45 45 SW 17 28 29.50 999 10 16 0.00 0.00
10:53 am 10:53 Sunny 41 5 21 -6.1 45 45 SW 20 31 29.47 998 10 16 0.00 0.00
11:53 am 11:53 Sunny 43 6.1 20 -6.7 40 40 SW 21 33 29.47 998 10 16 0.00 0.00
12:53 pm 12:53 Sunny 42 5.6 20 -6.7 41 41 SW 24 39 29.46 998 10 16 0.00 0.00
1:53 pm 13:53 Sunny 44 6.7 19 -7.2 37 37 SW 25 41 29.45 997 10 16 0.00 0.00
2:53 pm 14:53 Mostly Sunny 44 6.7 15 -9.4 31 31 WSW 28 44 29.46 998 10 16 0.00 0.00
3:53 pm 15:53 Sunny 41 5 18 -7.8 39 39 SW 17 28 29.51 999 10 16 0.00 0.00
4:53 pm 16:53 Clear 36 2.2 18 -7.8 48 48 SW 15 24 29.54 1000 10 16 0.00 0.00
5:53 pm 17:53 Clear 33 0.6 19 -7.2 56 56 SW 17 28 29.57 1001 10 16 0.00 0.00
6:53 pm 18:53 Clear 28 -2.2 17 -8.3 63 63 WSW 13 20 29.61 1003 10 16 0.00 0.00
7:53 pm 19:53 Cloudy 30 -1.1 18 -7.8 61 61 NW 7 11 29.64 1004 10 16 0.00 0.00
8:53 pm 20:53 Mostly Clear 19 -7.2 13 -10.6 77 77 NNE 10 17 29.70 1006 10 16 0.00 0.00
9:53 pm 21:53 Partly Cloudy 16 -8.9 11 -11.7 80 80 N 9 15 29.74 1007 10 16 0.00 0.00
10:53 pm 22:53 Mostly Clear 13 -10.6 8 -13.3 81 81 NNW 10 17 29.78 1009 10 16 0.00 0.00
11:53 pm 23:53 Cloudy 13 -10.6 7 -13.9 77 77 N 5 7 29.80 1009 10 16 0.00 0.00

Powered by AerisWeather